Weather History for Washington, MO

Change the Weather History Date:

Sunday, November 11, 2012

  Actual Average (KSTL) Record (KSTL)
Temperature  
Mean Temperature 52 °F 49 °F  
Max Temperature 68 °F 58 °F 85 °F (1989)
Min Temperature 35 °F 40 °F 18 °F (1950)
Degree Days  
Heating Degree Days 14 16  
Month to date heating degree days 154  
Since 1 July heating degree days 430  
Cooling Degree Days 0 0  
Month to date cooling degree days 0  
Year to date cooling degree days 1642  
Growing Degree Days 2 (Base 50)    
Moisture  
Dew Point 50 °F    
Average Humidity 80    
Maximum Humidity 100    
Minimum Humidity 60    
Precipitation  
Precipitation 0.65 in 0.13 in 1.53 in (1992)
Month to date precipitation 1.35  
Year to date precipitation 35.56  
Snow  
Snow - 0.00 in 1.00 in (1911)
Month to date snowfall 0.1  
Since 1 July snowfall 0.1  
Since 1 September snowfall 0.1  
Snow Depth -    
Sea Level Pressure  
Sea Level Pressure 29.92 in    
Wind  
Wind Speed 12 mph ()    
Max Wind Speed 26 mph    
Max Gust Speed 38 mph    
Visibility 7.6 miles    
Events Rain    
T = Trace of Precipitation, MM = Missing Value Source: Averaged Metar Reports

Daily Weather History Graph

Daily Weather History Graph

Search for Another Location

Airport:

Trip Planner

Search our weather history database for the weather conditions in past years. The results will help you decide how hot, cold, wet, or windy it might be!

Date:

Astronomy

Nov. 11, 2012 Rise Set
Actual Time 6:42 AM CST 4:53 PM CST
Civil Twilight 6:13 AM CST 5:21 PM CST
Nautical Twilight 5:42 AM CST 5:53 PM CST
Astronomical Twilight 5:10 AM CST 6:24 PM CST
Moon 3:57 AM CST (11/11) 3:16 PM CST (11/11)
Length of Visible Light 11h 07m
Length of Day
10h 11m
Waning Crescent, 7% of the Moon is Illuminated
Nov 11
Waning Crescent
Nov 13
New
Nov 20
First Quarter
Nov 28
Full
Dec 6
Last Quarter

Hourly Weather History & Observations

Time (CST) Temp. Windchill Dew Point Humidity Pressure Visibility Wind Dir Wind Speed Gust Speed Precip Events Conditions
12:15 AM 66.2 °F - 51.8 °F 60% 29.91 in 10.0 mi SSE 10.4 mph - N/A   Clear
12:35 AM 66.2 °F - 51.8 °F 60% 29.91 in 10.0 mi SSE 13.8 mph - N/A   Partly Cloudy
12:55 AM 66.2 °F - 51.8 °F 60% 29.91 in 10.0 mi SSE 13.8 mph 23.0 mph N/A   Partly Cloudy
1:15 AM 66.2 °F - 51.8 °F 60% 29.90 in 10.0 mi SSE 12.7 mph - N/A   Partly Cloudy
1:35 AM 66.2 °F - 51.8 °F 60% 29.90 in 10.0 mi SSE 11.5 mph 24.2 mph N/A   Clear
1:55 AM 66.2 °F - 51.8 °F 60% 29.89 in 10.0 mi SSE 17.3 mph - N/A   Clear
2:15 AM 66.2 °F - 51.8 °F 60% 29.91 in 10.0 mi South 10.4 mph 25.3 mph N/A   Clear
2:35 AM 64.4 °F - 51.8 °F 64% 29.90 in 10.0 mi SSE 9.2 mph - N/A   Clear
2:55 AM 64.4 °F - 51.8 °F 64% 29.90 in 10.0 mi SSE 11.5 mph 21.9 mph N/A   Partly Cloudy
3:15 AM 64.4 °F - 53.6 °F 68% 29.89 in 10.0 mi SSE 10.4 mph - N/A   Partly Cloudy
3:35 AM 64.4 °F - 53.6 °F 68% 29.90 in 10.0 mi SSE 10.4 mph - N/A   Scattered Clouds
3:55 AM 64.4 °F - 53.6 °F 68% 29.89 in 10.0 mi SSE 11.5 mph 16.1 mph N/A   Scattered Clouds
4:15 AM 64.4 °F - 53.6 °F 68% 29.89 in 10.0 mi SSE 10.4 mph - N/A   Mostly Cloudy
4:35 AM 64.4 °F - 53.6 °F 68% 29.89 in 10.0 mi SSE 11.5 mph - N/A   Mostly Cloudy
4:55 AM 64.4 °F - 53.6 °F 68% 29.90 in 10.0 mi SSE 8.1 mph - N/A   Mostly Cloudy
5:35 AM 62.6 °F - 53.6 °F 72% 29.91 in 10.0 mi SSE 9.2 mph - N/A   Mostly Cloudy
5:55 AM 62.6 °F - 53.6 °F 72% 29.91 in 10.0 mi SE 9.2 mph - N/A   Overcast
6:15 AM 64.4 °F - 55.4 °F 73% 29.90 in 10.0 mi SSE 12.7 mph - N/A   Overcast
6:55 AM 64.4 °F - 55.4 °F 73% 29.89 in 10.0 mi SSE 15.0 mph - N/A   Overcast
7:35 AM 64.4 °F - 55.4 °F 73% 29.88 in 10.0 mi SSE 15.0 mph 25.3 mph N/A   Mostly Cloudy
7:55 AM 66.2 °F - 55.4 °F 68% 29.88 in 10.0 mi SSE 15.0 mph 21.9 mph N/A   Mostly Cloudy
8:15 AM 66.2 °F - 55.4 °F 68% 29.88 in 10.0 mi SSE 19.6 mph 24.2 mph N/A   Overcast
8:35 AM 66.2 °F - 55.4 °F 68% 29.88 in 10.0 mi SSE 21.9 mph 27.6 mph N/A   Overcast
8:55 AM 66.2 °F - 55.4 °F 68% 29.86 in 10.0 mi SSE 21.9 mph 29.9 mph N/A   Overcast
9:15 AM 66.2 °F - 55.4 °F 68% 29.86 in 10.0 mi South 21.9 mph 29.9 mph N/A   Mostly Cloudy
9:35 AM 66.2 °F - 55.4 °F 68% 29.86 in 10.0 mi South 17.3 mph 27.6 mph N/A   Mostly Cloudy
9:55 AM 68.0 °F - 55.4 °F 64% 29.85 in 10.0 mi South 25.3 mph 34.5 mph N/A   Mostly Cloudy
10:15 AM 68.0 °F - 55.4 °F 64% 29.85 in 10.0 mi South 25.3 mph 34.5 mph N/A   Overcast
10:35 AM 68.0 °F - 55.4 °F 64% 29.83 in 10.0 mi South 21.9 mph 38.0 mph N/A   Mostly Cloudy
11:15 AM 68.0 °F - 55.4 °F 64% 29.81 in 10.0 mi South 24.2 mph 33.4 mph N/A   Scattered Clouds
11:35 AM 68.0 °F - 55.4 °F 64% 29.80 in 10.0 mi South 21.9 mph 31.1 mph N/A   Mostly Cloudy
12:15 PM 68.0 °F - 55.4 °F 64% 29.78 in 10.0 mi South 23.0 mph 32.2 mph N/A   Overcast
12:35 PM 68.0 °F - 55.4 °F 64% 29.79 in 10.0 mi South 26.5 mph 33.4 mph N/A   Overcast
12:55 PM 68.0 °F - 55.4 °F 64% 29.78 in 10.0 mi SSE 20.7 mph 26.5 mph N/A   Overcast
1:15 PM 66.2 °F - 57.2 °F 73% 29.77 in 4.0 mi South 17.3 mph 28.8 mph N/A   Haze
1:35 PM 66.2 °F - 57.2 °F 73% 29.77 in 9.0 mi South 17.3 mph 29.9 mph N/A   Overcast
1:55 PM 59.0 °F - 57.2 °F 94% 29.81 in 1.0 mi WNW 24.2 mph 31.1 mph 0.06 in Rain Rain
2:15 PM 53.6 °F - 53.6 °F 100% 29.84 in 1.2 mi NW 18.4 mph 25.3 mph 0.06 in Rain Light Rain
2:35 PM 53.6 °F - 53.6 °F 100% 29.85 in 1.8 mi NW 11.5 mph - 0.10 in Rain Light Rain
2:55 PM 53.6 °F - 53.6 °F 100% 29.88 in 2.0 mi NW 11.5 mph - 0.14 in Rain Rain
3:15 PM 53.6 °F - 51.8 °F 94% 29.88 in 3.0 mi NW 12.7 mph - N/A Rain Light Rain
3:35 PM 53.6 °F - 51.8 °F 94% 29.90 in 1.2 mi WNW 10.4 mph 17.3 mph 0.04 in Rain Rain
3:55 PM 51.8 °F - 51.8 °F 100% 29.91 in 3.0 mi WNW 10.4 mph - 0.06 in Rain Light Rain
4:15 PM 51.8 °F - 51.8 °F 100% 29.94 in 2.5 mi West 6.9 mph - 0.02 in Rain Rain
4:35 PM 51.8 °F - 50.0 °F 94% 29.90 in 5.0 mi Calm Calm - 0.06 in Rain Light Rain
4:55 PM 50.0 °F - 50.0 °F 100% 29.91 in 3.0 mi Calm Calm - 0.09 in Rain Rain
5:15 PM 50.0 °F - 50.0 °F 100% 29.93 in 3.0 mi Calm Calm - 0.03 in Rain Light Rain
5:35 PM 50.0 °F - 50.0 °F 100% 29.92 in 3.0 mi Calm Calm - 0.09 in Rain Rain
5:55 PM 50.0 °F - 50.0 °F 100% 29.96 in 5.0 mi Calm Calm - 0.10 in Rain Light Rain
6:15 PM 50.0 °F - 50.0 °F 100% 29.96 in 2.5 mi Calm Calm - N/A Rain Light Rain
6:35 PM 50.0 °F - 50.0 °F 100% 29.95 in 4.0 mi Calm Calm - N/A   Mostly Cloudy
6:55 PM 50.0 °F - 50.0 °F 100% 29.97 in 5.0 mi WNW 4.6 mph - 0.01 in Rain Light Rain
7:15 PM 50.0 °F - 50.0 °F 100% 29.96 in 4.0 mi Calm Calm - 0.01 in Rain Light Rain
7:35 PM 48.2 °F - 48.2 °F 100% 29.98 in 3.0 mi West 9.2 mph 20.7 mph 0.05 in Rain Rain
7:55 PM 46.4 °F 40.7 °F 44.6 °F 93% 29.97 in 5.0 mi WNW 12.7 mph - 0.07 in Rain Light Rain
8:15 PM 44.6 °F 37.8 °F 44.6 °F 100% 30.02 in 3.0 mi WNW 15.0 mph 18.4 mph 0.02 in Rain Rain
8:35 PM 42.8 °F 34.5 °F 41.0 °F 93% 30.03 in 3.0 mi WNW 18.4 mph 21.9 mph 0.09 in Rain Rain
8:55 PM 41.0 °F 33.9 °F 39.2 °F 93% 30.05 in 9.0 mi WNW 12.7 mph 20.7 mph 0.12 in Rain Light Rain
9:15 PM 39.2 °F 29.8 °F 37.4 °F 93% 30.05 in 10.0 mi NW 18.4 mph 23.0 mph N/A   Overcast
9:35 PM 39.2 °F 29.8 °F 37.4 °F 93% 30.09 in 10.0 mi WNW 18.4 mph 24.2 mph N/A Rain Light Rain
9:55 PM 39.2 °F 29.8 °F 37.4 °F 93% 30.07 in 10.0 mi NW 18.4 mph 24.2 mph N/A   Overcast
10:15 PM 37.4 °F 28.5 °F 35.6 °F 93% 30.06 in 4.0 mi WNW 15.0 mph 21.9 mph N/A Rain Light Rain
10:35 PM 37.4 °F 28.5 °F 35.6 °F 93% 30.07 in 10.0 mi NW 15.0 mph 19.6 mph N/A   Overcast
10:55 PM 37.4 °F 28.5 °F 35.6 °F 93% 30.12 in 10.0 mi WNW 15.0 mph 20.7 mph N/A   Overcast
11:15 PM 37.4 °F 28.9 °F 33.8 °F 87% 30.11 in 10.0 mi NW 13.8 mph - N/A   Overcast
11:35 PM 35.6 °F 26.2 °F 32.0 °F 87% 30.13 in 10.0 mi NW 15.0 mph - N/A   Overcast
11:55 PM 35.6 °F 26.2 °F 32.0 °F 87% 30.13 in 10.0 mi NW 15.0 mph 19.6 mph N/A   Overcast